Location: Catenanuova
(37.5690°N, 14.6870°E)
Time: 21:14:11
(UTC+02:00)

BlueWalker 3 - Pass Details

Date: 17 May 2025
Orbit: 460 x 472 km, 53.2° (Epoch: 16 June)

Event Time Altitude Azimuth Distance (km) Brightness Sun altitude
Rises 22:33:27 0° 324° (NW) 2,493 6.9 -23.6°
Reaches altitude 10° 22:36:28 10° 351° (N) 1,619 5.3 -23.9°
Maximum altitude 22:38:25 14° 24° (NNE) 1,400 4.5 -24.2°
Enters shadow 22:39:22 13° 41° (NE) 1,454 4.4 -24.3°
